{"data":{"norad_id":54856,"epoch":"2026-09-20T21:35:51.842976Z","epoch_age_seconds":58761,"freshness":"FRESH","line1":"1 54856U 22177AN  26263.89990559  .00000163  00000+0  15466-4 0  9995","line2":"2 54856  43.0025  99.2888 0001308 266.7905  93.2797 15.27573771206948","mean_motion":15.27573771,"eccentricity":0.0001308,"inclination_deg":43.0025,"raan_deg":99.2888,"arg_perigee_deg":266.7905,"mean_anomaly_deg":93.2797,"bstar":1.5466e-5,"rev_number":20694,"period_min":94.26713310594,"perigee_km":482.17030238887,"apogee_km":483.96519355094,"semimajor_km":6861.2047479699,"source":"CELESTRAK","updated_at":"2026-09-21T09:00:33.158794Z"}}